Weather History for Lexington, NE

Change the Weather History Date:

Monday, July 29, 2013

  Actual Average Record
Temperature  
Mean Temperature 64 °F -  
Max Temperature 69 °F 84 °F 98 °F (2006)
Min Temperature 59 °F 61 °F 51 °F (2004)
Degree Days  
Heating Degree Days 1    
Growing Degree Days 14 (Base 50)    
Moisture  
Dew Point 62 °F    
Average Humidity 93    
Maximum Humidity 97    
Minimum Humidity 85    
Precipitation  
Precipitation 0.31 in - - ()
Sea Level Pressure  
Sea Level Pressure 30.01 in    
Wind  
Wind Speed 6 mph (ESE)    
Max Wind Speed 14 mph    
Max Gust Speed -    
Visibility 5 miles    
Events Rain    
Averages and records for this station are not official NWS values.
T = Trace of Precipitation, MM = Missing Value Source: NWS Daily Summary

Daily Weather History Graph

Daily Weather History Graph

Search for Another Location

Airport:

Trip Planner

Search our weather history database for the weather conditions in past years. The results will help you decide how hot, cold, wet, or windy it might be!

Date:

Astronomy

Jul. 29, 2013 Rise Set
Actual Time 6:33 AM CDT 8:57 PM CDT
Civil Twilight 6:01 AM CDT 9:28 PM CDT
Nautical Twilight 5:23 AM CDT 10:06 PM CDT
Astronomical Twilight 4:40 AM CDT 10:49 PM CDT
Moon 12:18 AM CDT (7/29) 2:19 PM CDT (7/29)
Length of Visible Light 15h 26m
Length of Day
14h 24m
Waning Gibbous, 50% of the Moon is Illuminated
Jul 29
Waning Gibbous
Jul 29
Last Quarter
Aug 6
New
Aug 14
First Quarter
Aug 20
Full

Hourly Weather History & Observations

Time (CDT) Temp. Dew Point Humidity Pressure Visibility Wind Dir Wind Speed Gust Speed Precip Events Conditions
12:15 AM 59.4 °F 57.7 °F 94% 30.04 in 7.0 mi East 4.6 mph - N/A   Overcast
12:35 AM 59.2 °F 57.7 °F 95% 30.04 in 4.0 mi East 4.6 mph - N/A   Overcast
12:55 AM 59.4 °F 58.1 °F 96% 30.04 in 1.5 mi East 5.8 mph - N/A Rain Rain
1:15 AM 59.5 °F 58.5 °F 96% 30.03 in 1.2 mi East 5.8 mph - 0.02 in Rain Heavy Rain
1:35 AM 60.1 °F 59.0 °F 96% 30.03 in 4.0 mi East 5.8 mph - 0.04 in Rain Rain
1:55 AM 60.3 °F 59.2 °F 96% 30.02 in 3.0 mi ESE 3.5 mph - 0.14 in Rain Heavy Rain
2:15 AM 60.4 °F 59.4 °F 96% 30.02 in 5.0 mi East 5.8 mph - 0.11 in Rain Light Rain
2:55 AM 60.8 °F 59.5 °F 96% 30.01 in 7.0 mi SE 5.8 mph - 0.14 in Rain Rain
3:15 AM 60.8 °F 59.9 °F 97% 30.01 in 5.0 mi ESE 8.1 mph - N/A   Overcast
3:55 AM 61.0 °F 59.9 °F 96% 30.00 in 2.0 mi ESE 6.9 mph - 0.01 in   Overcast
4:15 AM 61.0 °F 59.9 °F 96% 30.00 in 1.8 mi SE 6.9 mph - N/A Rain Rain
4:55 AM 61.0 °F 60.1 °F 97% 29.99 in 2.0 mi ESE 5.8 mph - N/A   Overcast
5:15 AM 61.0 °F 60.1 °F 97% 29.99 in 2.5 mi ESE 4.6 mph - 0.01 in   Overcast
5:35 AM 61.2 °F 60.3 °F 97% 29.99 in 2.0 mi ESE 6.9 mph - 0.01 in   Overcast
5:55 AM 61.3 °F 60.4 °F 97% 29.99 in 2.0 mi ESE 6.9 mph - 0.01 in   Overcast
6:15 AM 61.7 °F 60.8 °F 97% 30.00 in 2.5 mi SE 5.8 mph - N/A   Overcast
6:35 AM 61.7 °F 61.0 °F 97% 30.00 in 2.0 mi SE 5.8 mph - N/A   Overcast
6:55 AM 61.7 °F 61.0 °F 97% 30.00 in 1.5 mi SE 5.8 mph - N/A   Overcast
7:15 AM 62.1 °F 61.2 °F 97% 30.00 in 1.8 mi SSE 5.8 mph - N/A   Overcast
7:35 AM 62.1 °F 61.2 °F 97% 30.00 in 2.0 mi SSE 8.1 mph - N/A   Overcast
7:55 AM 61.9 °F 61.2 °F 97% 30.00 in 1.8 mi SSE 12.7 mph - N/A Rain Light Rain
8:15 AM 61.7 °F 61.0 °F 97% 29.99 in 2.5 mi SSE 11.5 mph - N/A   Overcast
8:35 AM 61.9 °F 61.2 °F 97% 30.00 in 7.0 mi SSE 11.5 mph - N/A   Overcast
8:55 AM 62.1 °F 61.3 °F 97% 29.99 in 10.0 mi SSE 13.8 mph - N/A   Overcast
9:15 AM 62.6 °F 61.7 °F 97% 29.99 in 10.0 mi SSE 9.2 mph - 0.01 in   Overcast
9:35 AM 62.8 °F 61.9 °F 97% 29.99 in 10.0 mi SSE 13.8 mph - 0.01 in   Overcast
9:55 AM 63.5 °F 62.2 °F 96% 29.98 in 10.0 mi SSE 11.5 mph - 0.01 in   Overcast
10:15 AM 64.0 °F 62.2 °F 94% 29.97 in 10.0 mi SSE 12.7 mph - N/A   Overcast
10:35 AM 63.5 °F 61.7 °F 94% 29.98 in 7.0 mi SSE 11.5 mph - N/A   Overcast
10:55 AM 64.6 °F 62.6 °F 93% 29.99 in 5.0 mi SSE 9.2 mph - N/A   Overcast
11:15 AM 64.4 °F 62.4 °F 93% 29.99 in 5.0 mi SSE 6.9 mph - N/A   Overcast
11:35 AM 65.1 °F 62.8 °F 92% 29.99 in 5.0 mi SSE 8.1 mph - N/A   Overcast
11:55 AM 65.3 °F 62.8 °F 92% 30.00 in 7.0 mi South 5.8 mph - N/A   Overcast
12:15 PM 65.7 °F 62.8 °F 90% 30.00 in 7.0 mi South 4.6 mph - N/A   Overcast
12:35 PM 65.8 °F 62.6 °F 89% 30.01 in 7.0 mi Calm Calm - N/A   Overcast
12:55 PM 66.2 °F 63.0 °F 89% 30.00 in 5.0 mi SE 3.5 mph - N/A   Overcast
1:15 PM 66.4 °F 63.3 °F 90% 30.00 in 7.0 mi Calm Calm - N/A   Overcast
1:35 PM 66.4 °F 63.0 °F 89% 30.01 in 7.0 mi Calm Calm - N/A   Overcast
1:55 PM 66.4 °F 63.0 °F 89% 30.01 in 7.0 mi Calm Calm - N/A   Overcast
2:15 PM 66.7 °F 63.5 °F 89% 30.01 in 7.0 mi Calm Calm - N/A   Overcast
2:35 PM 67.1 °F 63.3 °F 88% 30.01 in 7.0 mi Calm Calm - N/A   Overcast
2:55 PM 67.3 °F 63.1 °F 87% 30.01 in 7.0 mi Calm Calm - N/A   Overcast
3:15 PM 68.2 °F 64.0 °F 87% 30.01 in 7.0 mi Calm Calm - N/A   Overcast
3:35 PM 68.0 °F 63.7 °F 86% 30.02 in 7.0 mi Calm Calm - N/A   Overcast
3:55 PM 68.2 °F 64.4 °F 88% 30.02 in 7.0 mi NNE 4.6 mph - N/A   Overcast
4:15 PM 68.4 °F 64.0 °F 86% 30.02 in 7.0 mi ENE 3.5 mph - N/A   Overcast
4:35 PM 68.5 °F 63.9 °F 85% 30.01 in 7.0 mi East 3.5 mph - N/A   Overcast
4:55 PM 68.4 °F 64.0 °F 86% 30.01 in 7.0 mi East 3.5 mph - N/A   Overcast
5:15 PM 68.9 °F 64.4 °F 86% 30.01 in 7.0 mi SE 3.5 mph - N/A   Overcast
5:35 PM 68.5 °F 64.4 °F 87% 30.00 in 5.0 mi East 3.5 mph - N/A   Haze
5:55 PM 68.7 °F 64.6 °F 87% 30.00 in 5.0 mi East 4.6 mph - N/A   Overcast
6:15 PM 68.9 °F 64.4 °F 86% 30.00 in 5.0 mi East 4.6 mph - N/A   Haze
6:35 PM 69.3 °F 64.6 °F 85% 29.99 in 7.0 mi East 4.6 mph - N/A   Overcast
6:55 PM 68.2 °F 64.6 °F 88% 30.00 in 5.0 mi East 6.9 mph - N/A   Overcast
7:15 PM 67.3 °F 64.4 °F 90% 30.00 in 5.0 mi East 8.1 mph - N/A   Overcast
7:35 PM 67.1 °F 64.4 °F 91% 30.02 in 4.0 mi East 6.9 mph - N/A   Overcast
7:55 PM 67.1 °F 64.6 °F 92% 30.03 in 3.0 mi East 4.6 mph - N/A   Overcast
8:15 PM 66.7 °F 64.9 °F 94% 30.04 in 2.0 mi East 5.8 mph - N/A   Overcast
8:35 PM 66.6 °F 64.9 °F 95% 30.05 in 2.5 mi Calm Calm - N/A   Overcast
8:55 PM 66.6 °F 64.9 °F 95% 30.06 in 3.0 mi ESE 3.5 mph - N/A   Overcast
9:15 PM 66.6 °F 64.9 °F 95% 30.06 in 5.0 mi SE 4.6 mph - N/A   Overcast
9:35 PM 66.7 °F 65.3 °F 95% 30.07 in 5.0 mi ESE 5.8 mph - N/A   Overcast
9:55 PM 66.7 °F 64.9 °F 94% 30.07 in 4.0 mi East 4.6 mph - N/A   Overcast
10:15 PM 66.4 °F 64.8 °F 95% 30.07 in 3.0 mi East 3.5 mph - N/A   Overcast
10:35 PM 66.2 °F 64.8 °F 95% 30.07 in 3.0 mi SE 9.2 mph - N/A   Overcast
10:55 PM 65.7 °F 64.4 °F 96% 30.07 in 3.0 mi SE 8.1 mph - N/A   Scattered Clouds
11:15 PM 65.3 °F 64.0 °F 96% 30.06 in 3.0 mi SE 5.8 mph - N/A   Scattered Clouds
11:35 PM 65.3 °F 63.9 °F 95% 30.06 in 4.0 mi SE 3.5 mph - N/A   Scattered Clouds
11:55 PM 64.4 °F 63.1 °F 96% 30.06 in 3.0 mi SE 3.5 mph - N/A   Clear